Precipitable_Water
1.05 1.05 1.06 1.09 0.89 0.87 0.89 0.87 0.92 0.90 0.94 0.84 0.69 0.61 0.60 0.58 0.63 0.71 0.73 0.79 0.62 0.47 0.47 0.50 0.47 0.40 0.40 0.40 0.37 0.46 0.37 0.39 0.36 0.31 0.33 0.38 0.33 0.41 0.39 0.44 0.46 0.45 0.44 0.42 0.43 0.38 0.36 0.66 0.66 0.53 0.72 0.77 0.85 0.97
1.10 1.10 1.13 1.12 0.90 0.88 0.89 0.87 0.92 0.92 0.92 0.87 0.74 0.64 0.61 0.57 0.60 0.68 0.68 0.76 0.76 0.59 0.53 0.56 0.53 0.55 0.54 0.48 0.44 0.47 0.42 0.37 0.41 0.38 0.36 0.37 0.32 0.33 0.35 0.33 0.51 0.46 0.53 0.49 0.51 0.55 0.69 0.74 0.70 0.79 0.82 0.80 0.85 0.96
1.25 1.12 1.11 1.17 0.95 0.87 0.87 0.86 0.91 0.93 0.92 0.91 0.75 0.68 0.62 0.58 0.58 0.64 0.66 0.70 0.70 0.53 0.47 0.50 0.49 0.58 0.65 0.62 0.62 0.46 0.46 0.47 0.44 0.51 0.44 0.40 0.32 0.30 0.25 0.32 0.37 0.50 0.62 0.56 0.56 0.61 0.64 0.67 0.73 0.82 0.86 0.88 0.93 0.97
1.26 1.23 1.13 1.11 1.02 0.92 0.92 0.89 0.90 0.92 0.92 0.94 0.75 0.69 0.65 0.59 0.57 0.64 0.60 0.69 0.71 0.55 0.43 0.47 0.58 0.59 0.72 0.72 0.64 0.60 0.55 0.55 0.54 0.53 0.46 0.39 0.36 0.39 0.34 0.40 0.36 0.50 0.55 0.58 0.59 0.63 0.64 0.64 0.66 0.77 0.89 0.99 0.98 1.01
1.18 1.21 1.14 1.10 1.04 0.97 0.97 0.94 0.91 0.93 0.94 0.95 0.73 0.69 0.69 0.63 0.60 0.64 0.66 0.67 0.76 0.59 0.45 0.47 0.56 0.66 0.75 0.73 0.70 0.65 0.59 0.54 0.51 0.47 0.42 0.42 0.47 0.44 0.46 0.43 0.40 0.48 0.50 0.46 0.53 0.68 0.64 0.59 0.66 0.73 0.75 0.83 0.98 1.00
1.13 1.15 1.15 1.12 1.03 0.99 0.98 0.99 0.96 0.93 0.97 0.91 0.72 0.70 0.70 0.68 0.70 0.64 0.45 0.56 0.72 0.73 0.49 0.37 0.62 0.64 0.72 0.73 0.72 0.66 0.59 0.53 0.55 0.51 0.48 0.49 0.54 0.48 0.41 0.41 0.55 0.55 0.57 0.58 0.51 0.60 0.63 0.63 0.63 0.63 0.66 0.73 0.83 0.91
1.11 1.13 1.11 1.09 1.03 1.00 1.01 1.02 1.02 0.95 1.00 0.85 0.72 0.69 0.71 0.70 0.75 0.66 0.52 0.61 0.66 0.73 0.50 0.41 0.49 0.64 0.70 0.70 0.70 0.66 0.60 0.48 0.48 0.51 0.51 0.52 0.50 0.50 0.46 0.37 0.53 0.55 0.58 0.59 0.62 0.61 0.57 0.62 0.60 0.66 0.65 0.64 0.69 0.78
1.11 1.14 1.15 1.03 1.02 1.03 1.08 1.07 1.04 1.01 0.93 0.77 0.71 0.71 0.74 0.75 0.78 0.64 0.69 0.68 0.66 0.62 0.57 0.45 0.51 0.54 0.66 0.59 0.60 0.64 0.53 0.49 0.50 0.47 0.46 0.44 0.45 0.45 0.33 0.42 0.51 0.54 0.57 0.57 0.57 0.60 0.59 0.59 0.62 0.63 0.66 0.67 0.66 0.69
1.12 1.16 1.15 1.04 1.05 1.08 1.09 1.08 1.05 1.01 0.83 0.72 0.70 0.75 0.81 0.76 0.69 0.69 0.71 0.68 0.72 0.62 0.49 0.50 0.47 0.43 0.63 0.61 0.63 0.59 0.55 0.40 0.50 0.44 0.44 0.42 0.38 0.22 0.29 0.35 0.41 0.48 0.50 0.52 0.52 0.49 0.48 0.47 0.49 0.51 0.53 0.55 0.57 0.59
1.13 1.18 1.17 1.18 1.13 1.09 1.09 1.08 1.08 0.89 0.76 0.73 0.76 0.74 0.68 0.80 0.87 0.74 0.55 0.48 0.49 0.56 0.59 0.53 0.61 0.49 0.57 0.56 0.53 0.50 0.48 0.36 0.37 0.44 0.46 0.35 0.30 0.35 0.35 0.37 0.44 0.50 0.49 0.45 0.36 0.36 0.34 0.35 0.37 0.38 0.39 0.43 0.48 0.54
1.06 1.14 1.18 1.17 1.13 1.11 1.06 1.06 0.96 0.80 0.79 0.73 0.74 0.77 0.98 1.01 0.77 0.61 0.48 0.42 0.43 0.42 0.49 0.53 0.58 0.52 0.63 0.48 0.50 0.50 0.43 0.37 0.33 0.41 0.36 0.31 0.26 0.32 0.35 0.37 0.47 0.46 0.44 0.42 0.42 0.41 0.36 0.37 0.37 0.38 0.39 0.42 0.44 0.45
0.96 1.08 1.15 1.16 1.11 1.11 1.07 0.98 0.86 0.78 0.84 0.88 0.95 0.96 0.96 0.77 0.64 0.50 0.43 0.45 0.42 0.35 0.50 0.50 0.54 0.58 0.60 0.61 0.49 0.50 0.40 0.37 0.32 0.45 0.34 0.27 0.31 0.37 0.35 0.35 0.40 0.45 0.45 0.43 0.42 0.39 0.40 0.40 0.42 0.44 0.45 0.45 0.46 0.47
0.96 1.09 1.13 1.16 1.11 1.10 1.01 0.94 0.89 0.91 0.96 0.98 0.87 0.75 0.67 0.61 0.43 0.34 0.29 0.34 0.39 0.45 0.53 0.51 0.45 0.55 0.56 0.57 0.49 0.43 0.35 0.34 0.42 0.33 0.30 0.28 0.36 0.36 0.38 0.36 0.38 0.44 0.47 0.47 0.45 0.47 0.50 0.50 0.52 0.50 0.50 0.54 0.55 0.56
0.99 1.14 1.14 1.14 1.10 1.07 1.02 0.95 0.93 0.98 0.89 0.78 0.68 0.54 0.50 0.45 0.40 0.36 0.34 0.41 0.56 0.57 0.54 0.52 0.50 0.50 0.53 0.44 0.45 0.38 0.43 0.41 0.32 0.27 0.24 0.34 0.39 0.46 0.51 0.53 0.52 0.49 0.45 0.48 0.50 0.54 0.56 0.57 0.57 0.57 0.57 0.60 0.60 0.60
0.97 1.08 1.15 1.12 1.10 1.08 1.02 0.94 0.88 0.94 0.84 0.69 0.63 0.43 0.43 0.49 0.56 0.52 0.51 0.55 0.63 0.67 0.58 0.53 0.52 0.52 0.45 0.42 0.44 0.43 0.37 0.33 0.34 0.30 0.35 0.41 0.48 0.51 0.52 0.54 0.57 0.57 0.56 0.52 0.56 0.58 0.58 0.59 0.56 0.55 0.57 0.58 0.58 0.54
1.00 1.01 1.04 1.10 1.14 1.09 1.02 0.93 0.88 0.85 0.75 0.61 0.60 0.54 0.60 0.51 0.52 0.53 0.54 0.60 0.71 0.66 0.63 0.58 0.53 0.47 0.44 0.44 0.41 0.38 0.35 0.32 0.37 0.45 0.49 0.52 0.51 0.55 0.55 0.57 0.59 0.63 0.62 0.59 0.63 0.64 0.61 0.58 0.55 0.53 0.52 0.50 0.49 0.46
1.07 0.93 1.01 1.08 1.08 1.04 0.99 0.95 0.88 0.73 0.62 0.58 0.49 0.50 0.55 0.61 0.60 0.61 0.62 0.72 0.80 0.66 0.52 0.54 0.45 0.43 0.54 0.45 0.43 0.47 0.42 0.48 0.57 0.61 0.65 0.67 0.62 0.61 0.61 0.61 0.62 0.68 0.68 0.67 0.66 0.64 0.61 0.59 0.53 0.49 0.46 0.49 0.46 0.48
1.01 1.04 1.02 1.01 1.02 0.98 0.93 0.86 0.77 0.69 0.59 0.57 0.49 0.43 0.47 0.49 0.58 0.60 0.71 0.81 0.75 0.68 0.63 0.54 0.58 0.46 0.42 0.42 0.46 0.53 0.58 0.63 0.65 0.66 0.68 0.71 0.76 0.74 0.75 0.72 0.74 0.75 0.75 0.73 0.67 0.63 0.62 0.55 0.50 0.51 0.51 0.48 0.46 0.50
1.08 1.11 1.05 1.01 0.92 0.78 0.70 0.73 0.73 0.55 0.53 0.54 0.54 0.51 0.48 0.46 0.58 0.64 0.73 0.81 0.84 0.84 0.72 0.61 0.51 0.47 0.47 0.54 0.58 0.62 0.65 0.68 0.69 0.71 0.72 0.74 0.76 0.76 0.79 0.83 0.83 0.82 0.81 0.78 0.70 0.65 0.61 0.54 0.55 0.55 0.49 0.47 0.47 0.49
1.08 1.12 1.13 1.02 0.92 0.67 0.59 0.60 0.74 0.56 0.48 0.57 0.54 0.46 0.45 0.41 0.48 0.58 0.61 0.69 0.73 0.70 0.62 0.57 0.57 0.60 0.59 0.63 0.69 0.71 0.76 0.78 0.72 0.69 0.68 0.75 0.80 0.80 0.84 0.89 0.84 0.85 0.90 0.86 0.83 0.73 0.65 0.58 0.58 0.55 0.51 0.50 0.50 0.47
1.05 1.07 1.12 1.06 0.90 0.78 0.68 0.65 0.65 0.67 0.68 0.63 0.69 0.65 0.56 0.53 0.44 0.43 0.60 0.72 0.64 0.59 0.57 0.67 0.66 0.64 0.69 0.75 0.80 0.77 0.71 0.67 0.60 0.60 0.59 0.68 0.84 0.86 0.90 0.95 0.93 0.91 0.93 0.88 0.79 0.72 0.68 0.60 0.58 0.56 0.51 0.51 0.51 0.54
1.00 1.12 1.03 1.00 0.87 0.86 0.77 0.79 0.64 0.69 0.66 0.67 0.66 0.66 0.60 0.54 0.46 0.45 0.54 0.57 0.56 0.57 0.62 0.62 0.61 0.67 0.65 0.63 0.65 0.69 0.67 0.68 0.71 0.72 0.72 0.76 0.74 0.77 0.81 0.86 0.86 0.94 0.94 0.87 0.79 0.74 0.68 0.67 0.65 0.55 0.52 0.52 0.54 0.57
1.05 1.05 0.96 0.91 0.80 0.77 0.70 0.83 0.68 0.69 0.57 0.58 0.61 0.55 0.53 0.55 0.59 0.64 0.43 0.42 0.44 0.57 0.65 0.65 0.64 0.66 0.61 0.65 0.71 0.79 0.87 0.87 0.84 0.88 0.95 0.96 0.97 0.95 0.93 0.97 1.01 0.94 0.90 0.86 0.88 0.79 0.73 0.72 0.61 0.52 0.52 0.54 0.56 0.56
1.06 0.89 0.77 0.74 0.73 0.61 0.70 0.64 0.72 0.65 0.63 0.59 0.59 0.54 0.57 0.60 0.66 0.57 0.47 0.46 0.49 0.57 0.53 0.58 0.63 0.61 0.73 0.87 0.89 0.93 0.97 0.97 0.94 0.97 1.03 0.99 0.94 0.95 0.98 0.98 1.04 1.02 0.96 0.91 0.86 0.80 0.76 0.72 0.61 0.50 0.52 0.52 0.51 0.52
0.73 0.72 0.71 0.57 0.64 0.56 0.51 0.55 0.57 0.60 0.55 0.58 0.57 0.55 0.59 0.69 0.58 0.56 0.54 0.58 0.64 0.65 0.70 0.75 0.78 0.87 0.87 0.90 0.94 0.98 1.07 1.01 0.93 0.90 0.97 0.99 0.94 0.94 0.95 1.03 1.01 0.99 0.98 0.85 0.81 0.75 0.72 0.65 0.56 0.48 0.45 0.48 0.49 0.51
0.54 0.61 0.52 0.53 0.54 0.48 0.49 0.49 0.54 0.57 0.61 0.62 0.62 0.61 0.57 0.52 0.50 0.58 0.69 0.76 0.79 0.84 0.81 0.82 0.88 0.91 0.91 0.93 0.88 0.87 0.93 1.00 0.90 0.84 0.87 0.94 0.93 0.89 0.88 0.85 0.86 0.94 0.91 0.81 0.72 0.67 0.61 0.58 0.56 0.49 0.44 0.46 0.47 0.51
0.42 0.47 0.57 0.65 0.61 0.58 0.53 0.58 0.64 0.63 0.62 0.61 0.64 0.58 0.55 0.52 0.58 0.69 0.80 0.85 0.83 0.88 0.89 0.90 0.85 0.77 0.75 0.76 0.79 0.84 0.91 0.96 0.91 0.88 0.91 0.91 0.91 0.96 0.91 0.82 0.81 0.80 0.82 0.72 0.67 0.61 0.56 0.57 0.56 0.50 0.45 0.47 0.50 0.50
0.49 0.50 0.43 0.52 0.52 0.56 0.54 0.56 0.56 0.57 0.63 0.70 0.68 0.58 0.55 0.58 0.62 0.76 0.85 0.91 0.89 0.83 0.77 0.73 0.68 0.70 0.72 0.77 0.87 0.91 0.91 0.91 0.92 0.90 0.88 0.88 0.96 0.95 0.91 0.89 0.85 0.83 0.72 0.66 0.63 0.61 0.58 0.57 0.56 0.51 0.47 0.47 0.49 0.52
0.44 0.49 0.48 0.44 0.50 0.57 0.54 0.51 0.54 0.65 0.73 0.72 0.66 0.62 0.68 0.78 0.86 0.87 0.89 0.85 0.80 0.72 0.69 0.65 0.67 0.75 0.80 0.82 0.83 0.80 0.77 0.75 0.69 0.63 0.61 0.62 0.68 0.74 0.79 0.75 0.69 0.63 0.60 0.58 0.58 0.59 0.60 0.58 0.56 0.52 0.50 0.51 0.53 0.55
0.42 0.48 0.43 0.42 0.43 0.45 0.54 0.63 0.66 0.76 0.79 0.78 0.77 0.75 0.78 0.84 0.91 0.95 0.89 0.77 0.70 0.67 0.66 0.67 0.71 0.70 0.64 0.61 0.59 0.61 0.65 0.66 0.64 0.60 0.56 0.58 0.63 0.70 0.66 0.62 0.60 0.59 0.57 0.56 0.54 0.54 0.56 0.56 0.56 0.54 0.53 0.54 0.55 0.55
0.60 0.56 0.48 0.45 0.41 0.44 0.53 0.66 0.74 0.79 0.76 0.75 0.82 0.75 0.72 0.78 0.86 0.91 0.79 0.74 0.70 0.68 0.59 0.58 0.62 0.59 0.60 0.55 0.52 0.51 0.52 0.61 0.66 0.67 0.66 0.62 0.63 0.69 0.68 0.63 0.61 0.56 0.55 0.55 0.55 0.52 0.50 0.50 0.52 0.52 0.52 0.53 0.55 0.54
0.57 0.53 0.50 0.44 0.47 0.55 0.59 0.60 0.63 0.66 0.69 0.73 0.71 0.76 0.75 0.75 0.67 0.72 0.82 0.77 0.69 0.56 0.47 0.46 0.49 0.51 0.55 0.62 0.65 0.62 0.58 0.60 0.60 0.63 0.65 0.62 0.62 0.64 0.64 0.56 0.53 0.53 0.53 0.53 0.54 0.54 0.55 0.53 0.51 0.52 0.53 0.54 0.56 0.55
0.54 0.55 0.59 0.62 0.63 0.64 0.65 0.62 0.61 0.59 0.60 0.69 0.76 0.79 0.79 0.75 0.67 0.70 0.75 0.69 0.60 0.52 0.46 0.46 0.48 0.50 0.52 0.54 0.56 0.60 0.61 0.60 0.59 0.58 0.59 0.60 0.58 0.60 0.56 0.54 0.51 0.51 0.52 0.52 0.52 0.52 0.50 0.47 0.46 0.48 0.49 0.50 0.51 0.52
Wind_Speed
28 28 27 25 24 23 21 19 18 16 14 13 11 10 8 6 5 4 4 5 6 4 4 3 3 3 4 5 6 5 6 4 5 5 6 5 6 6 8 8 9 10 9 10 10 11 13 9 12 12 13 16 15 17
29 28 27 26 25 23 22 20 18 17 14 12 11 10 8 6 5 5 6 5 5 5 4 3 2 3 5 6 8 6 7 7 6 6 6 6 6 7 7 7 7 8 9 9 9 7 7 7 8 11 15 16 15 16
31 30 28 27 26 24 23 20 19 16 14 12 11 10 8 7 6 6 7 5 6 5 4 5 3 4 4 5 7 7 6 6 7 7 6 6 7 7 7 7 7 7 8 8 9 7 5 5 6 7 9 15 13 13
31 31 29 28 26 24 23 20 18 16 14 12 11 10 9 8 7 7 7 7 7 5 5 4 4 3 4 5 5 5 4 4 4 5 6 7 7 7 6 5 8 5 8 8 7 6 5 4 4 4 3 8 13 12
32 30 29 28 26 24 22 20 18 16 14 12 11 10 9 8 8 9 8 7 8 6 3 3 4 3 3 3 4 5 4 3 4 5 5 5 5 6 7 7 8 8 7 9 7 7 7 4 4 3 4 5 8 12
30 30 29 27 26 24 22 20 17 15 14 12 11 10 9 8 9 9 9 9 9 8 5 4 3 4 3 2 3 5 5 4 4 4 3 4 5 6 6 7 6 8 8 7 8 8 7 6 5 5 4 5 7 9
27 26 26 25 23 21 19 17 16 15 14 12 10 10 9 9 10 10 8 8 9 8 6 5 4 4 4 3 3 4 5 4 4 3 3 4 4 6 6 7 7 8 8 8 7 7 7 8 7 6 6 6 7 9
23 23 23 22 21 20 19 17 16 14 13 11 10 9 9 9 10 10 10 8 9 8 7 4 3 3 4 3 2 3 4 3 3 2 2 2 2 4 5 6 7 8 8 8 8 8 7 8 8 7 7 8 8 9
22 21 19 18 18 18 18 16 15 14 12 11 10 9 9 9 10 10 10 9 10 9 7 6 5 3 3 2 2 2 3 2 2 2 2 2 1 2 3 4 6 8 8 8 8 7 7 8 9 9 10 10 10 10
20 18 17 15 14 15 16 15 15 14 12 11 10 9 10 9 10 11 10 10 10 11 9 7 5 3 4 2 1 2 2 2 2 2 2 1 2 2 1 2 5 6 6 7 7 6 6 6 6 7 8 9 11 13
17 16 15 13 12 12 14 15 14 13 12 11 11 10 9 10 11 12 11 11 10 9 10 10 9 5 5 4 2 1 1 2 2 2 2 2 2 1 3 3 4 6 6 6 5 4 4 5 5 5 5 6 7 8
15 14 13 12 11 11 13 14 14 14 12 11 10 10 10 11 11 12 12 11 10 10 8 10 10 7 5 3 2 1 1 1 1 1 1 2 1 2 3 3 5 5 4 4 4 4 4 4 5 5 6 7 7 8
13 12 12 13 12 13 13 14 14 14 12 12 11 12 11 11 11 13 14 12 11 10 10 10 10 8 6 4 2 2 2 2 1 2 2 3 1 1 2 2 4 5 5 5 5 5 5 6 7 8 9 9 10 11
11 11 11 12 13 13 14 14 14 14 13 12 12 12 13 12 13 13 14 12 10 10 12 12 10 8 6 6 4 4 2 3 4 3 4 3 3 3 3 4 4 6 6 7 7 7 7 8 8 9 10 11 12 12
11 10 11 12 12 13 14 14 14 14 13 12 12 12 14 13 12 13 13 13 12 12 13 11 9 8 6 5 5 4 4 4 5 5 5 5 5 6 6 7 7 7 8 9 9 9 9 9 9 10 10 10 11 13
13 11 11 12 13 12 13 13 13 14 13 12 12 12 12 13 14 14 15 15 15 15 14 11 9 8 7 5 5 6 4 5 4 4 5 6 7 8 9 9 9 9 9 10 10 10 10 10 11 11 11 12 13 13
13 12 12 11 12 13 12 12 13 13 13 12 13 14 13 12 13 14 15 16 18 17 15 12 11 9 6 6 6 6 6 5 5 6 7 9 10 10 11 11 11 11 11 11 11 10 11 11 11 11 12 13 13 13
14 13 13 11 11 11 11 12 12 13 13 14 13 12 13 14 14 15 16 18 19 19 17 15 11 12 9 8 9 8 9 11 12 14 15 14 13 13 13 14 13 13 13 12 12 12 12 12 12 13 13 12 11 10
14 14 13 12 10 10 9 11 12 10 12 12 13 14 14 13 15 17 17 18 19 17 17 16 15 14 15 15 15 15 14 13 14 15 16 16 16 16 16 16 16 15 15 15 14 13 13 13 12 12 12 11 11 10
16 16 15 13 11 10 9 8 9 10 9 9 12 13 14 14 15 17 19 20 20 19 19 18 19 17 16 16 16 17 18 19 20 20 20 19 20 20 19 19 20 18 19 18 16 14 12 12 13 12 12 12 10 10
14 14 15 14 12 11 8 7 9 9 8 9 9 10 12 14 16 17 19 19 20 20 20 20 20 20 20 19 19 21 22 23 24 24 24 23 21 22 22 22 20 20 19 20 18 16 13 12 12 12 12 12 11 10
12 14 14 14 11 10 9 9 7 7 9 9 9 10 10 12 14 16 16 19 19 20 20 20 20 19 20 21 22 23 25 25 25 24 24 24 25 24 23 20 20 20 22 21 18 16 13 12 12 12 11 10 9 10
13 13 13 12 10 9 8 8 8 8 8 8 8 9 10 11 12 13 15 17 18 19 19 19 19 20 21 21 22 24 24 24 23 22 22 22 21 20 19 19 18 16 16 18 18 16 14 13 11 11 11 9 9 9
13 13 10 11 10 8 7 7 7 7 6 7 7 8 9 10 10 11 12 14 14 13 15 15 16 16 17 17 17 16 15 14 15 14 15 15 15 15 16 17 18 17 16 15 14 13 13 12 11 10 9 9 9 9
10 10 9 9 9 8 8 7 8 7 5 6 6 6 6 7 8 9 9 9 10 11 11 11 12 13 13 13 12 12 13 13 14 15 14 15 14 12 12 13 13 12 13 13 13 14 13 10 9 9 10 9 9 8
9 9 9 9 8 8 7 6 7 7 6 4 5 4 5 6 6 5 5 4 5 5 6 7 9 11 13 14 14 15 15 16 17 18 17 17 14 12 11 10 11 13 13 13 12 12 11 11 10 9 9 9 9 8
9 8 9 9 7 7 8 8 6 6 5 4 2 4 5 5 4 4 3 3 4 5 7 9 12 14 16 17 18 19 18 18 16 15 13 12 10 9 9 8 10 11 11 11 11 11 11 11 10 10 9 9 9 9
9 8 10 9 10 9 8 7 7 7 6 4 4 4 4 4 4 4 4 5 6 8 10 12 13 13 13 13 13 12 11 9 8 8 7 7 8 8 8 7 9 8 8 10 11 11 11 11 11 10 10 9 8 8
9 9 9 10 10 9 10 9 8 7 6 5 4 4 4 5 6 5 5 6 8 9 11 10 9 8 7 6 6 6 6 6 5 5 6 5 5 6 6 6 7 8 9 10 11 10 11 11 11 10 10 9 8 8
9 10 9 9 10 9 8 9 7 7 7 6 6 7 7 6 6 6 6 7 8 10 10 9 7 6 6 5 5 5 5 5 5 5 5 5 6 5 6 7 7 8 9 10 10 11 11 11 10 11 11 10 10 9
7 9 10 10 9 9 10 9 7 6 7 7 6 6 6 5 5 6 6 7 10 9 7 7 6 6 5 5 4 5 6 6 6 7 7 7 7 7 8 9 8 8 9 10 10 11 12 13 13 13 13 13 13 12
9 9 8 8 6 7 9 8 7 6 4 3 3 3 3 4 4 5 9 8 5 6 6 6 5 5 6 7 7 7 8 9 9 10 11 10 9 7 7 8 8 9 9 10 11 11 12 14 14 15 15 14 14 13
10 10 9 6 7 8 10 8 6 4 3 1 1 2 2 3 2 2 3 3 4 5 5 6 6 6 7 8 9 10 11 12 13 13 12 11 10 9 9 9 9 9 9 9 10 10 10 11 12 12 13 13 13 12
Wind_Direction
299 303 305 306 307 308 310 309 308 307 306 307 311 313 308 306 289 250 235 239 234 249 225 247 279 294 277 286 299 309 285 266 261 260 261 249 250 240 248 251 255 250 238 237 244 244 231 270 236 245 240 240 241 231
295 298 299 300 301 301 301 301 301 299 296 295 299 300 293 286 275 249 232 237 230 238 221 240 289 309 307 303 296 288 291 279 279 266 258 253 248 243 245 246 238 239 238 243 247 239 243 253 249 250 245 236 237 231
290 292 294 294 296 295 294 292 293 289 286 284 287 287 281 271 261 241 232 235 224 216 220 236 257 305 313 318 315 298 288 281 267 267 265 259 251 247 243 244 248 230 227 232 213 218 231 255 259 264 250 229 227 224
290 287 288 289 290 290 288 284 284 280 275 273 276 277 272 262 250 233 227 229 220 225 244 248 264 285 312 327 336 326 307 286 273 262 263 258 248 242 244 252 244 238 217 214 213 212 219 249 266 268 249 217 215 218
286 286 284 283 284 283 282 277 275 271 265 263 267 267 261 254 240 225 224 221 212 218 253 249 248 267 297 327 355 360 335 303 280 269 261 254 249 243 243 248 239 226 230 230 228 217 235 235 250 251 236 217 210 209
284 284 281 279 278 278 273 270 266 261 254 253 257 257 251 243 229 220 224 218 211 217 238 251 258 242 263 296 330 348 347 333 305 294 278 260 254 250 251 246 235 228 226 233 226 223 225 225 240 243 233 227 219 215
286 285 280 277 272 270 264 260 261 249 244 244 247 248 244 233 222 222 222 213 211 214 225 245 247 242 243 266 301 326 343 339 321 314 293 272 248 252 254 246 223 218 215 214 214 212 221 232 239 243 238 230 227 222
286 286 282 277 269 262 255 255 246 238 232 235 237 239 235 225 219 214 208 207 204 210 215 237 232 234 223 253 273 328 335 333 351 342 335 302 268 266 257 239 217 210 209 213 217 228 226 230 238 245 247 243 237 236
284 284 285 276 267 255 247 244 231 225 224 226 229 228 216 217 213 206 202 204 203 206 216 225 222 221 212 231 287 318 335 342 359 342 1 352 351 259 241 210 200 198 204 205 212 219 228 236 242 246 250 251 250 249
283 281 272 277 263 250 238 224 220 216 218 219 214 219 215 215 203 198 202 203 204 210 218 223 210 208 213 210 227 312 334 353 343 13 3 336 327 261 203 194 189 190 193 189 195 208 224 232 239 244 250 253 254 256
283 273 267 265 254 238 220 215 213 211 211 208 215 217 212 201 200 202 202 202 201 211 213 215 209 205 211 218 219 301 347 356 347 63 12 18 4 105 155 161 165 170 180 197 217 230 229 225 230 237 242 251 257 260
278 264 257 249 240 225 212 209 207 205 209 211 212 207 202 204 204 205 202 203 209 209 200 201 200 201 193 210 221 217 257 241 318 78 342 356 0 96 155 169 175 182 194 209 223 227 231 237 249 257 261 264 267 269
268 258 245 239 229 219 212 209 207 208 208 206 210 206 206 204 206 207 201 203 207 200 198 192 184 189 190 207 204 213 223 247 270 261 284 269 87 161 180 188 196 207 217 228 235 245 254 258 266 270 271 272 273 275
259 248 239 226 223 215 211 208 206 204 205 210 206 212 211 208 212 208 208 205 200 200 188 186 183 193 201 206 217 238 243 249 263 260 269 257 244 240 240 247 241 237 239 244 252 258 263 269 273 279 282 280 277 274
244 240 226 217 213 209 206 204 204 203 206 211 212 215 215 217 213 212 209 205 200 192 183 181 188 200 196 207 220 223 230 250 253 265 269 269 263 262 259 258 256 256 252 256 259 265 267 270 278 286 287 284 285 282
232 228 219 214 209 205 200 200 203 205 210 216 217 218 216 218 217 210 205 202 194 189 188 192 192 201 206 214 214 223 244 252 267 269 280 274 274 268 265 261 262 264 260 260 261 262 266 272 278 280 282 285 287 287
223 216 207 202 200 199 199 205 207 209 213 218 219 219 224 224 218 207 205 203 196 196 199 202 205 209 206 229 236 236 250 264 272 285 294 291 280 273 269 263 260 261 259 259 260 264 270 276 278 278 281 285 288 287
210 206 201 200 198 200 206 205 206 216 222 222 220 222 219 223 219 213 210 205 203 207 212 216 217 219 229 234 240 246 265 278 282 287 291 286 281 278 272 264 260 261 257 256 259 263 269 272 276 280 282 284 283 280
204 203 199 198 197 199 203 206 212 222 222 223 226 229 227 226 221 219 213 210 213 216 220 223 230 238 246 253 262 269 275 281 285 290 291 285 277 278 275 267 262 263 255 253 256 265 268 268 278 281 278 275 280 278
212 207 203 200 196 198 205 208 213 223 224 221 228 231 228 227 224 219 220 218 218 223 227 231 238 248 255 260 266 271 276 282 285 288 289 283 277 276 273 271 264 259 259 251 257 264 269 270 277 274 271 274 274 274
196 197 196 196 199 204 213 217 220 225 229 229 229 231 232 226 227 225 223 220 224 229 234 239 245 252 259 265 271 275 278 280 281 283 284 285 278 276 277 271 258 262 258 253 252 257 267 278 275 268 267 268 269 273
187 184 189 194 200 207 224 224 231 231 231 236 237 234 237 232 229 226 223 226 233 235 238 245 251 257 264 270 275 278 281 282 281 282 280 280 278 276 276 266 258 259 259 248 245 251 259 274 271 265 261 265 267 268
184 182 183 190 202 212 230 223 229 227 232 234 233 236 234 232 229 224 231 234 239 241 242 248 255 262 270 276 279 281 281 281 281 281 282 282 280 276 263 263 259 265 253 237 246 247 253 267 266 262 262 260 262 267
176 182 191 198 206 215 213 218 217 222 227 228 235 239 236 231 226 229 235 237 239 241 245 249 255 263 272 278 282 285 285 285 286 285 287 286 286 282 269 264 259 257 244 236 232 242 250 256 259 254 249 255 260 266
183 192 198 207 205 211 216 213 212 213 226 222 242 243 227 216 220 227 233 239 240 241 243 250 257 265 271 282 287 288 285 286 289 290 290 290 290 287 279 265 252 244 223 225 241 242 248 244 239 243 247 254 258 263
195 196 195 196 196 201 202 206 207 212 225 236 228 219 205 210 216 204 198 208 222 236 257 267 271 271 274 280 287 290 292 291 289 288 287 286 281 279 277 262 239 220 234 241 238 235 229 227 233 240 245 249 253 263
200 197 201 204 206 210 210 214 212 213 211 218 217 202 194 200 182 195 211 242 258 272 284 288 288 286 285 286 287 291 291 292 288 288 284 279 270 266 267 252 231 230 237 219 224 222 221 227 233 236 241 246 247 253
204 204 207 202 208 209 215 216 211 212 215 216 227 220 208 206 196 241 269 274 284 291 296 303 301 301 298 295 294 293 296 298 297 292 287 280 272 270 266 243 218 228 220 222 225 225 229 231 232 232 235 243 247 251
205 202 206 213 211 210 212 211 217 212 215 211 219 235 233 242 258 264 279 289 296 300 307 309 312 315 323 328 320 314 308 305 305 299 294 278 259 261 245 227 224 228 228 226 225 231 234 233 230 230 232 239 248 252
211 206 209 207 207 207 205 202 211 213 215 230 251 258 261 258 253 257 278 295 306 311 313 307 304 307 316 324 330 333 330 324 318 313 307 285 276 267 233 233 236 241 234 230 230 230 234 231 230 232 236 240 248 254
199 196 203 208 211 213 213 211 213 224 236 246 252 261 266 255 251 263 282 300 313 315 316 311 302 300 300 311 322 324 326 323 321 317 311 307 294 264 245 242 250 247 237 234 234 233 231 231 234 238 241 244 249 254
178 181 177 182 191 194 195 198 201 204 199 220 251 247 247 254 264 289 293 294 298 315 325 322 312 305 302 301 302 309 314 318 315 309 301 296 287 268 247 247 248 245 242 241 240 242 242 242 244 244 245 246 249 249
156 157 163 165 155 151 155 157 165 181 198 225 303 314 290 281 306 309 322 326 336 342 339 334 328 320 312 304 301 298 297 304 311 308 301 292 283 257 249 247 244 243 244 244 244 246 248 248 245 244 242 242 241 242